Wilmington, OH

2:51 AM EST on December 11, 2017 (GMT -0500)
Airborne

Weather History for KILN - February, 2013

Change the Weather History Date:

Tuesday, February 26, 2013

  Actual Average (KFFO) Record (KFFO)
Temperature  
Mean Temperature 39 °F -  
Max Temperature 45 °F 42 °F 60 °F (1998)
Min Temperature 33 °F 25 °F 6 °F (2015)
Degree Days  
Heating Degree Days 26    
Moisture  
Dew Point 37 °F    
Average Humidity 88    
Maximum Humidity 100    
Minimum Humidity 67    
Precipitation  
Precipitation 0.63 in - - ()
Sea Level Pressure  
Sea Level Pressure 29.57 in    
Wind  
Wind Speed 13 mph (ESE)    
Max Wind Speed 24 mph    
Max Gust Speed 36 mph    
Visibility 7 miles    
Events Rain    
Averages and records for this station are not official NWS values.
T = Trace of Precipitation, MM = Missing Value Source: NWS Daily Summary

Daily Weather History Graph

Daily Weather History Graph

Search for Another Location

Airport or City:

Trip Planner

Search our weather history database for the weather conditions in past years. The results will help you decide how hot, cold, wet, or windy it might be!

Date:

Astronomy

Feb. 26, 2013 Rise Set
Actual Time 7:12 AM EST 6:24 PM EST
Civil Twilight 6:44 AM EST 6:51 PM EST
Nautical Twilight 6:13 AM EST 7:22 PM EST
Astronomical Twilight 5:42 AM EST 7:53 PM EST
Moon 7:39 PM EST (2/26) 7:14 AM EST (2/26)
Length of Visible Light 12h 06m
Length of Day
11h 12m
Full, 99% of the Moon is Illuminated
Feb 26
Full
Mar 4
Last Quarter
Mar 11
New
Mar 19
First Quarter
Mar 27
Full

Hourly Weather History & Observations

Time (EST) Temp. Windchill Dew Point Humidity Pressure Visibility Wind Dir Wind Speed Gust Speed Precip Events Conditions
12:54 AM 34.0 °F 25.5 °F 24.1 °F 67% 29.96 in 10.0 mi East 11.5 mph - N/A   Clear
1:54 AM 34.0 °F 24.6 °F 24.1 °F 67% 29.91 in 10.0 mi East 13.8 mph 21.9 mph N/A   Clear
2:54 AM 33.1 °F 24.9 °F 24.1 °F 70% 29.87 in 10.0 mi East 10.4 mph 19.6 mph N/A   Clear
3:54 AM 33.1 °F 23.9 °F 25.0 °F 72% 29.84 in 10.0 mi East 12.7 mph 18.4 mph N/A   Partly Cloudy
4:54 AM 33.1 °F 23.4 °F 25.0 °F 72% 29.79 in 10.0 mi East 13.8 mph 21.9 mph N/A   Partly Cloudy
5:54 AM 34.0 °F 25.5 °F 25.0 °F 70% 29.77 in 10.0 mi East 11.5 mph 25.3 mph N/A   Mostly Cloudy
6:54 AM 33.1 °F 24.4 °F 27.0 °F 78% 29.76 in 7.0 mi East 11.5 mph 18.4 mph 0.00 in Rain Light Rain
7:27 AM 33.8 °F 25.3 °F 28.4 °F 81% 29.67 in 6.0 mi East 11.5 mph 19.6 mph 0.04 in Rain Light Freezing Rain
7:36 AM 33.8 °F 24.3 °F 28.4 °F 81% 29.67 in 6.0 mi East 13.8 mph 24.2 mph 0.05 in Rain Light Freezing Rain
7:54 AM 33.1 °F 23.4 °F 28.9 °F 85% 29.71 in 6.0 mi East 13.8 mph 21.9 mph 0.06 in Rain Light Freezing Rain
8:54 AM 34.0 °F 24.6 °F 30.0 °F 85% 29.70 in 9.0 mi East 13.8 mph 24.2 mph 0.00 in Rain Light Rain
9:54 AM 35.1 °F 25.5 °F 32.0 °F 89% 29.65 in 6.0 mi East 15.0 mph 24.2 mph 0.03 in Rain Light Rain
10:54 AM 37.0 °F 28.5 °F 35.1 °F 93% 29.61 in 6.0 mi East 13.8 mph 23.0 mph 0.02 in Rain Light Rain
11:50 AM 39.2 °F 30.8 °F 37.4 °F 93% 29.53 in 3.0 mi East 15.0 mph - 0.05 in Rain Light Rain
11:54 AM 39.0 °F 31.0 °F 37.0 °F 93% 29.59 in 3.0 mi East 13.8 mph - 0.05 in Rain Light Rain
12:05 PM 39.2 °F 31.6 °F 37.4 °F 93% 29.52 in 1.8 mi East 12.7 mph 21.9 mph 0.04 in Rain Heavy Rain
12:15 PM 39.2 °F 32.0 °F 37.4 °F 93% 29.51 in 3.0 mi East 11.5 mph - 0.07 in Rain Light Rain
12:54 PM 42.1 °F 34.9 °F 39.0 °F 89% 29.55 in 10.0 mi ESE 13.8 mph 20.7 mph 0.07 in   Overcast
1:12 PM 42.8 °F 37.0 °F 39.2 °F 87% 29.48 in 8.0 mi East 10.4 mph - 0.00 in Rain Light Rain
1:54 PM 43.0 °F 35.7 °F 41.0 °F 93% 29.51 in 10.0 mi ESE 15.0 mph 21.9 mph 0.00 in   Overcast
2:54 PM 43.0 °F 35.4 °F 41.0 °F 93% 29.47 in 3.0 mi East 16.1 mph 21.9 mph 0.06 in Rain Rain
3:03 PM 42.8 °F 35.1 °F 41.0 °F 93% 29.41 in 2.0 mi ESE 16.1 mph 24.2 mph 0.02 in Rain Rain
3:12 PM 42.8 °F 35.1 °F 41.0 °F 93% 29.40 in 3.0 mi East 16.1 mph 25.3 mph 0.04 in Rain Light Rain
3:54 PM 44.1 °F 36.8 °F 42.1 °F 93% 29.45 in 5.0 mi East 16.1 mph 21.9 mph 0.07 in Rain Light Rain
4:05 PM 44.6 °F 37.4 °F 42.8 °F 93% 29.39 in 8.0 mi East 16.1 mph 21.9 mph 0.00 in Rain Light Rain
4:54 PM 45.0 °F 37.4 °F 43.0 °F 93% 29.44 in 10.0 mi East 18.4 mph 26.5 mph 0.00 in   Overcast
5:38 PM 44.6 °F 38.1 °F 42.8 °F 93% 29.40 in 6.0 mi ESE 13.8 mph 20.7 mph 0.02 in Rain Light Rain
5:54 PM 45.0 °F 38.9 °F 43.0 °F 93% 29.46 in 5.0 mi ESE 12.7 mph - 0.04 in Rain Light Rain
6:22 PM 44.6 °F 42.2 °F 42.8 °F 93% 29.41 in 2.5 mi Variable 4.6 mph 16.1 mph 0.07 in Rain Heavy Rain
6:28 PM 44.6 °F 39.2 °F 42.8 °F 93% 29.41 in 3.0 mi ESE 10.4 mph 16.1 mph 0.10 in Rain Rain
6:54 PM 45.0 °F 40.1 °F 43.0 °F 93% 29.47 in 5.0 mi SE 9.2 mph - 0.14 in Rain Rain
7:07 PM 44.6 °F 35.7 °F 42.8 °F 93% 29.44 in 4.0 mi WSW 24.2 mph 35.7 mph 0.04 in Rain Rain
7:18 PM 44.6 °F 36.9 °F 42.8 °F 93% 29.45 in 7.0 mi SW 18.4 mph - 0.05 in Rain Light Rain
7:29 PM 44.6 °F 38.4 °F 42.8 °F 93% 29.45 in 7.0 mi WSW 12.7 mph 23.0 mph 0.06 in Rain Light Rain
7:54 PM 43.0 °F 38.2 °F 42.1 °F 97% 29.52 in 10.0 mi SW 8.1 mph - 0.08 in Rain Light Rain
8:17 PM 42.8 °F 37.5 °F 42.8 °F 100% 29.46 in 10.0 mi SW 9.2 mph - 0.00 in Rain Light Rain
8:54 PM 43.0 °F 38.2 °F 42.1 °F 97% 29.52 in 10.0 mi SSW 8.1 mph - 0.00 in   Overcast
9:04 PM 42.8 °F 36.6 °F 41.0 °F 93% 29.47 in 10.0 mi SSW 11.5 mph - N/A   Overcast
9:54 PM 43.0 °F 36.4 °F 41.0 °F 93% 29.53 in 10.0 mi SSW 12.7 mph - 0.00 in   Overcast
10:54 PM 42.1 °F 33.9 °F 41.0 °F 96% 29.54 in 8.0 mi SW 17.3 mph - 0.00 in Rain Light Rain
11:54 PM 41.0 °F 32.8 °F 39.0 °F 93% 29.55 in 10.0 mi SW 16.1 mph - 0.01 in Rain Light Rain